Location: Kuppenheim
(48.8299°N, 8.2568°E)
Time: 22:33:26
(UTC+00:00)

Envisat - Visible Passes

Search period start: 28 November 2022 00:00
Search period end: 08 December 2022 00:00
Orbit: 763 x 765 km, 98.2° (Epoch: 28 November)

Date Brightness Start Highest point End Pass type
(mag) Time Alt. Az. Time Alt. Az. Time Alt. Az.
28 Nov 5.7 02:29:50 10° NE 02:31:00 14° ENE 02:31:00 14° ENE visible
28 Nov 3.6 04:07:40 10° N 04:11:09 44° N 04:11:09 44° N visible
28 Nov 4.6 05:48:40 10° NNW 05:50:52 13° NW 05:51:19 13° WNW visible
29 Nov 4.4 03:30:42 10° NNE 03:33:31 32° NE 03:33:31 32° NE visible
29 Nov 4.1 05:10:24 10° N 05:13:41 23° NW 05:13:41 23° NW visible
29 Nov 6.3 16:32:46 10° W 16:33:58 11° W 16:35:10 10° WNW visible
30 Nov 5.3 02:54:08 10° NE 02:55:54 19° NE 02:55:54 19° NE visible
30 Nov 3.8 04:32:52 10° N 04:36:04 33° NNW 04:36:04 33° NNW visible
01 Dec 4.2 03:55:42 10° NNE 03:58:26 33° NNE 03:58:26 33° NNE visible
01 Dec 4.5 05:36:10 10° NNW 05:38:36 15° NW 05:38:36 15° NW visible
02 Dec 5.0 03:18:50 10° NNE 03:20:50 23° NE 03:20:50 23° NE visible
02 Dec 4.2 04:58:14 10° N 05:01:00 24° NNW 05:01:00 24° NNW visible
02 Dec 5.9 16:19:15 10° WSW 16:21:50 14° W 16:24:26 10° NW visible
03 Dec 5.7 02:42:27 10° NE 02:43:14 13° NE 02:43:14 13° NE visible
03 Dec 4.2 04:20:50 10° N 04:23:24 29° N 04:23:24 29° N visible
03 Dec 4.9 06:03:27 10° NW 06:03:34 10° NW 06:03:34 10° NW visible
04 Dec 4.7 03:43:45 10° NNE 03:45:48 25° NNE 03:45:48 25° NNE visible
04 Dec 4.5 05:23:49 10° NNW 05:25:58 17° NW 05:25:58 17° NW visible
05 Dec 5.4 03:07:00 10° NNE 03:08:12 16° NE 03:08:12 16° NE visible
05 Dec 4.3 04:46:07 10° N 04:48:23 23° NNW 04:48:23 23° NNW visible
05 Dec 5.8 16:06:23 10° SW 16:09:44 18° W 16:13:05 10° NW visible
06 Dec 4.6 04:08:49 10° N 04:10:48 24° N 04:10:48 24° N visible
06 Dec 4.8 05:49:56 10° NNW 05:50:58 12° NW 05:50:58 12° NW visible
07 Dec 5.1 03:31:49 10° NNE 03:33:13 19° NNE 03:33:13 19° NNE visible
07 Dec 4.6 05:11:35 10° N 05:13:24 18° NNW 05:13:24 18° NNW visible
07 Dec 6.4 16:34:30 10° W 16:35:08 10° W 16:35:47 10° WNW visible
